Regional Weather Roundup
Issued by NWS Jackson, KY

Home | Current Version | Previous Version | Text Only | Print | Product List | Glossary On
Versions: 1 2 3 4 5 6 7 8 9 10 11 12 13 14 15 16 17 18 19 20 21 22 23 24 25 26 27 28 29 30 31 32 33 34 35 36 37 38 39 40 41 42 43 44 45 46 47 48 49 50
000
ASUS43 KJKL 020310
RWRJKL

EAST KENTUCKY HOURLY WEATHER ROUNDUP
NATIONAL WEATHER SERVICE JACKSON KY
1100 PM EDT WED APR 01 2015

NOTE: "FAIR" INDICATES FEW OR NO CLOUDS BELOW 12,000 FEET WITH
NO SIGNIFICANT WEATHER AND/OR OBSTRUCTIONS TO VISIBILITY.

* THESE REPORTS ARE NOT UNDER NWS QUALITY CONTROL AND MAY NOT
  REPORT WEATHER SUCH AS PRECIPITATION AND FOG.

KYZ079-080-083-085-087-088-110-112-115-119-120-020400
...EASTERN KENTUCKY...

CITY           SKY/WX    TMP DP  RH WIND       PRES   REMARKS
JACKSON        MOCLDY    58  16  19 VRB3      30.11S
LONDON         PTCLDY    54  28  36 CALM      30.10S
SOMERSET*      PTCLDY    50  28  43 CALM      30.10S
MONTICELLO*    MOCLDY    44  34  68 CALM      30.11S
MIDDLESBORO*   PTCLDY    48  36  64 CALM      30.13S
HAZARD APT*    CLEAR     54  21  28 E3        30.12S
BLACK MTN*       N/A     50  14  23 SE1         N/A
PIKEVILLE APT* CLEAR     57  18  21 SE3       30.13R
BIG SANDY*     PTCLDY    56  21  26 E5        30.12R
MOREHEAD APT*  PTCLDY    57  19  23 VRB5      30.12F
$$

KYZ035-036-041-042-044-050-067-078-099-020400
...CENTRAL KENTUCKY...

CITY           SKY/WX    TMP DP  RH WIND       PRES   REMARKS
MT STERLING*   MOCLDY    55  25  30 SE7       30.11S
FLEMING/MASON* CLEAR     52  25  35 E8        30.10F
DANVILLE*      PTCLDY    45  34  65 CALM      30.09F
RICHMOND*      PTCLDY    54  23  30 SE6       30.09S
LEXINGTON      PTCLDY    55  27  34 E6        30.08F
FRANKFORT      PTCLDY    47  31  53 CALM      30.07S
$$

KYZ091>093-OHZ055-061-077-WVZ005-015-034-035-042-020400
...SOUTHERN OHIO/WEST VIRGINIA...

CITY           SKY/WX    TMP DP  RH WIND       PRES   REMARKS
COVINGTON      PTCLDY    50  29  44 SE5       30.07F
COLUMBUS       PTCLDY    52  31  44 SE6       30.09F
DAYTON         PTCLDY    53  30  41 S9        30.07F
WILMINGTON     PTCLDY    49  31  49 SE6       30.08F
HUNTINGTON     PTCLDY    54  22  28 SE7       30.10F
CHARLESTON     CLEAR     48  26  42 CALM      30.14F
PINEVILLE*     CLEAR     42  31  66 MISG      30.21S
BECKLEY        CLEAR     46  18  32 SE6       30.18S
BLUEFIELD      CLEAR     53  11  18 SE8       30.20R
$$

VAZ002-007-008-TNZ017-027-036-066-071-020400
...SOUTHWEST VIRGINIA/EAST TENNESSEE...

CITY           SKY/WX    TMP DP  RH WIND       PRES   REMARKS
WISE*          PTCLDY    54   3  13 CALM      30.17R
JONESVILLE*    PTCLDY    46  36  66 CALM      30.16R
ABINGDON*      PTCLDY    52  22  31 E7        30.16S
BRISTOL        PTCLDY    46  30  53 CALM      30.14R
KNOXVILLE      CLOUDY    57  30  35 E5        30.10S
OAK RIDGE      MOCLDY    55  36  48 CALM      30.12S
CROSSVILLE     PTCLDY    56  25  30 S3        30.12R
NASHVILLE      MOCLDY    61  36  39 SE5       30.04F
$$

...KEY TO REMARKS...
VSB - VISIBILITY IN MILES
WCI - WIND CHILL INDEX
HX  - HEAT INDEX

$$



USA.gov is the U.S. government's official web portal to all federal, state and local government web resources and services.